Miami, FL

5:57 AM EST on November 21, 2017 (GMT -0500)
Miami International

Weather History for KMIA - October, 2013

Change the Weather History Date:

Wednesday, October 16, 2013

  Actual Average Record
Temperature  
Mean Temperature 81 °F 80 °F  
Max Temperature 87 °F 86 °F 94 °F (2009)
Min Temperature 74 °F 74 °F 60 °F (1955)
Degree Days  
Heating Degree Days 0 0  
Month to date heating degree days 0 0  
Since 1 July heating degree days 0 0  
Cooling Degree Days 16 15  
Month to date cooling degree days 261 257  
Year to date cooling degree days 3939 3869  
Growing Degree Days 30 (Base 50)    
Moisture  
Dew Point 69 °F    
Average Humidity 71    
Maximum Humidity 82    
Minimum Humidity 59    
Precipitation  
Precipitation 0.00 in 0.18 in 3.75 in (1932)
Month to date precipitation 5.65 3.97  
Year to date precipitation 58.80 54.23  
Snow  
Snow 0.00 in - - ()
Month to date snowfall 0.0  
Since 1 July snowfall 0.0  
Since 1 September snowfall 0.0  
Snow Depth 0.00 in    
Sea Level Pressure  
Sea Level Pressure 29.93 in    
Wind  
Wind Speed 6 mph (NE)    
Max Wind Speed 14 mph    
Max Gust Speed 25 mph    
Visibility 10 miles    
Events      
T = Trace of Precipitation, MM = Missing Value Source: NWS Daily Summary

Daily Weather History Graph

Daily Weather History Graph

Search for Another Location

Airport or City:

Trip Planner

Search our weather history database for the weather conditions in past years. The results will help you decide how hot, cold, wet, or windy it might be!

Date:

Astronomy

Oct. 16, 2013 Rise Set
Actual Time 7:20 AM EDT 6:52 PM EDT
Civil Twilight 6:57 AM EDT 7:15 PM EDT
Nautical Twilight 6:30 AM EDT 7:42 PM EDT
Astronomical Twilight 6:03 AM EDT 8:09 PM EDT
Moon 5:21 PM EDT (10/16) 4:59 AM EDT (10/16)
Length of Visible Light 12h 18m
Length of Day
11h 31m
Waxing Gibbous, 94% of the Moon is Illuminated
Oct 16
Waxing Gibbous
Oct 18
Full
Oct 26
Last Quarter
Nov 3
New
Nov 10
First Quarter

Hourly Weather History & Observations

Time (EDT) Temp. Heat Index Dew Point Humidity Pressure Visibility Wind Dir Wind Speed Gust Speed Precip Events Conditions
12:53 AM 78.1 °F - 68.0 °F 71% 29.94 in 10.0 mi Calm Calm - N/A   Partly Cloudy
1:53 AM 75.9 °F - 66.9 °F 74% 29.93 in 10.0 mi North 3.5 mph - N/A   Partly Cloudy
2:53 AM 75.9 °F - 68.0 °F 76% 29.91 in 10.0 mi NNW 3.5 mph - N/A   Partly Cloudy
3:53 AM 75.9 °F - 68.0 °F 76% 29.90 in 10.0 mi North 3.5 mph - N/A   Partly Cloudy
4:53 AM 75.0 °F - 68.0 °F 79% 29.91 in 10.0 mi NNW 3.5 mph - N/A   Partly Cloudy
5:53 AM 75.0 °F - 69.1 °F 82% 29.92 in 10.0 mi Calm Calm - N/A   Partly Cloudy
6:53 AM 75.0 °F - 68.0 °F 79% 29.93 in 10.0 mi Calm Calm - N/A   Scattered Clouds
7:53 AM 77.0 °F - 68.0 °F 74% 29.94 in 10.0 mi Calm Calm - N/A   Mostly Cloudy
8:53 AM 80.1 °F 82.9 °F 69.1 °F 69% 29.95 in 10.0 mi NNW 5.8 mph - N/A   Scattered Clouds
9:53 AM 82.9 °F 87.5 °F 71.1 °F 67% 29.96 in 10.0 mi Variable 5.8 mph - N/A   Scattered Clouds
10:53 AM 82.9 °F 87.0 °F 70.0 °F 65% 29.96 in 10.0 mi ENE 6.9 mph - N/A   Mostly Cloudy
11:53 AM 84.0 °F 87.0 °F 68.0 °F 58% 29.95 in 10.0 mi North 5.8 mph - N/A   Mostly Cloudy
12:53 PM 84.9 °F 89.4 °F 70.0 °F 61% 29.94 in 10.0 mi ENE 5.8 mph - N/A   Mostly Cloudy
1:53 PM 84.0 °F 88.4 °F 70.0 °F 63% 29.92 in 10.0 mi NE 6.9 mph - N/A   Mostly Cloudy
2:53 PM 82.9 °F 87.0 °F 70.0 °F 65% 29.91 in 10.0 mi ENE 8.1 mph - N/A   Mostly Cloudy
3:53 PM 84.0 °F 88.4 °F 70.0 °F 63% 29.90 in 10.0 mi ENE 11.5 mph - N/A   Mostly Cloudy
4:53 PM 84.0 °F 87.8 °F 69.1 °F 61% 29.90 in 10.0 mi ENE 10.4 mph - N/A   Mostly Cloudy
5:53 PM 82.0 °F 85.5 °F 69.1 °F 65% 29.90 in 10.0 mi NE 8.1 mph - N/A   Mostly Cloudy
6:53 PM 81.0 °F 83.8 °F 68.0 °F 65% 29.91 in 10.0 mi ENE 9.2 mph - N/A   Mostly Cloudy
7:53 PM 80.1 °F 82.3 °F 66.9 °F 64% 29.92 in 10.0 mi ENE 8.1 mph - N/A   Scattered Clouds
8:53 PM 80.1 °F 82.3 °F 66.9 °F 64% 29.94 in 10.0 mi East 8.1 mph - N/A   Scattered Clouds
9:53 PM 80.1 °F 82.7 °F 68.0 °F 67% 29.95 in 10.0 mi ENE 11.5 mph - N/A   Partly Cloudy
10:53 PM 80.1 °F 82.9 °F 69.1 °F 69% 29.96 in 10.0 mi East 4.6 mph - N/A   Partly Cloudy
11:53 PM 79.0 °F - 69.1 °F 72% 29.95 in 10.0 mi East 4.6 mph - N/A   Scattered Clouds